Location: Casalecchio di Reno
(44.4760°N, 11.2757°E)
Time: 16:15:40
(UTC+02:00)

DX 1 - Pass Details

Date: 18 June 2024
Orbit: 607 x 619 km, 98.3° (Epoch: 19 July)

Event Time Altitude Azimuth Distance (km) Brightness Sun altitude
Rises 01:35:48 0° 11° (N) 2,878 ? -22.0°
Reaches altitude 10° 01:37:59 10° 9° (N) 1,969 ? -21.9°
Maximum altitude 01:42:14 69° 287° (WNW) 655 ? -21.9°
Enters shadow 01:42:52 58° 236° (SW) 711 ? -21.8°
